Time,TemperatureF,DewpointF,PressureIn,WindDirection,WindDirectionDegrees,WindSpeedMPH,WindSpeedGustMPH,Humidity,HourlyPrecipIn,Conditions,Clouds,dailyrainin,SoftwareType,DateUTC
2013-06-14 00:00:00,76.3,73.5,29.86,WSW,247,0.0,0.0,91,0.00,,,0.00,Wunderground v.1.15,2013-06-14 04:00:00,
2013-06-14 00:05:00,76.3,73.5,29.87,WSW,247,0.0,0.0,91,0.00,,,0.00,Wunderground v.1.15,2013-06-14 04:05:00,
2013-06-14 00:10:00,76.3,73.5,29.87,WSW,247,0.0,0.0,91,0.00,,,0.00,Wunderground v.1.15,2013-06-14 04:10:00,
2013-06-14 00:15:00,76.1,73.3,29.87,WSW,247,0.0,0.0,91,0.00,,,0.00,Wunderground v.1.15,2013-06-14 04:15:00,
2013-06-14 00:20:00,76.1,73.3,29.87,WSW,247,0.0,0.0,91,0.00,,,0.00,Wunderground v.1.15,2013-06-14 04:20:00,
2013-06-14 00:30:00,75.8,73.0,29.87,WSW,247,0.0,0.0,91,0.00,,,0.00,Wunderground v.1.15,2013-06-14 04:30:00,
2013-06-14 00:40:00,75.8,73.3,29.87,WSW,247,0.0,0.0,92,0.00,,,0.00,Wunderground v.1.15,2013-06-14 04:40:00,
2013-06-14 00:50:00,75.4,72.9,29.86,WSW,247,0.0,0.0,92,0.00,,,0.00,Wunderground v.1.15,2013-06-14 04:50:00,
2013-06-14 01:00:00,75.4,73.2,29.86,WSW,247,0.0,0.0,93,0.00,,,0.00,Wunderground v.1.15,2013-06-14 05:00:00,
2013-06-14 01:05:00,75.3,73.1,29.85,WSW,247,0.0,0.0,93,0.00,,,0.00,Wunderground v.1.15,2013-06-14 05:05:00,
2013-06-14 01:15:00,75.1,72.9,29.85,WSW,247,0.0,0.0,93,0.00,,,0.00,Wunderground v.1.15,2013-06-14 05:15:00,
2013-06-14 01:20:00,75.1,72.9,29.85,WSW,247,0.0,0.0,93,0.00,,,0.00,Wunderground v.1.15,2013-06-14 05:20:00,
2013-06-14 01:30:00,75.1,73.3,29.85,WSW,247,0.0,0.0,94,0.00,,,0.00,Wunderground v.1.15,2013-06-14 05:30:00,
2013-06-14 01:40:00,75.1,73.3,29.85,WSW,247,0.0,0.0,94,0.00,,,0.00,Wunderground v.1.15,2013-06-14 05:40:00,
2013-06-14 01:50:00,74.9,73.1,29.84,WSW,247,0.0,0.0,94,0.00,,,0.00,Wunderground v.1.15,2013-06-14 05:50:00,
2013-06-14 02:00:00,74.9,73.1,29.84,WSW,247,0.0,1.0,94,0.00,,,0.00,Wunderground v.1.15,2013-06-14 06:00:00,
2013-06-14 02:05:00,74.9,73.1,29.84,WSW,247,0.0,1.0,94,0.00,,,0.00,Wunderground v.1.15,2013-06-14 06:05:00,
2013-06-14 02:15:00,74.9,73.1,29.84,WSW,247,0.0,0.0,94,0.00,,,0.00,Wunderground v.1.15,2013-06-14 06:15:00,
2013-06-14 02:25:00,74.9,73.1,29.84,WSW,247,0.0,0.0,94,0.00,,,0.00,Wunderground v.1.15,2013-06-14 06:25:00,
2013-06-14 02:35:00,74.9,73.1,29.84,WSW,247,0.0,0.0,94,0.00,,,0.00,Wunderground v.1.15,2013-06-14 06:35:00,
2013-06-14 02:40:00,74.9,73.1,29.84,WSW,247,0.0,0.0,94,0.00,,,0.00,Wunderground v.1.15,2013-06-14 06:40:00,
2013-06-14 02:50:00,74.9,73.1,29.84,WSW,247,0.0,0.0,94,0.00,,,0.00,Wunderground v.1.15,2013-06-14 06:50:00,
2013-06-14 03:00:00,74.7,73.2,29.84,WSW,250,0.0,0.0,95,0.00,,,0.00,Wunderground v.1.15,2013-06-14 07:00:00,
2013-06-14 03:05:00,74.7,73.2,29.84,WSW,250,0.0,0.0,95,0.00,,,0.00,Wunderground v.1.15,2013-06-14 07:05:00,
2013-06-14 03:15:00,74.7,73.2,29.84,SW,229,0.0,0.0,95,0.00,,,0.00,Wunderground v.1.15,2013-06-14 07:15:00,
2013-06-14 03:25:00,74.7,73.2,29.84,SW,229,0.0,0.0,95,0.00,,,0.00,Wunderground v.1.15,2013-06-14 07:25:00,
2013-06-14 03:35:00,74.7,73.2,29.83,SW,229,0.0,0.0,95,0.00,,,0.00,Wunderground v.1.15,2013-06-14 07:35:00,
2013-06-14 03:45:00,74.6,73.1,29.83,SW,223,0.0,0.0,95,0.00,,,0.00,Wunderground v.1.15,2013-06-14 07:45:00,
2013-06-14 03:55:00,74.6,73.1,29.82,WSW,247,0.0,1.0,95,0.00,,,0.00,Wunderground v.1.15,2013-06-14 07:55:00,
2013-06-14 04:05:00,74.6,73.1,29.82,WSW,247,0.0,0.0,95,0.00,,,0.00,Wunderground v.1.15,2013-06-14 08:05:00,
2013-06-14 04:15:00,74.6,73.1,29.81,SE,131,0.0,0.0,95,0.00,,,0.00,Wunderground v.1.15,2013-06-14 08:15:00,
2013-06-14 04:25:00,74.6,73.1,29.81,SW,215,0.0,0.0,95,0.00,,,0.00,Wunderground v.1.15,2013-06-14 08:25:00,
2013-06-14 04:35:00,74.6,73.1,29.80,SW,215,0.0,0.0,95,0.00,,,0.00,Wunderground v.1.15,2013-06-14 08:35:00,
2013-06-14 04:45:00,74.6,73.1,29.80,SW,215,0.0,0.0,95,0.00,,,0.00,Wunderground v.1.15,2013-06-14 08:45:00,
2013-06-14 04:55:00,74.6,73.1,29.80,SW,215,0.0,0.0,95,0.00,,,0.00,Wunderground v.1.15,2013-06-14 08:55:00,
2013-06-14 05:05:00,74.6,73.1,29.81,SW,215,0.0,0.0,95,0.00,,,0.00,Wunderground v.1.15,2013-06-14 09:05:00,
2013-06-14 05:15:00,74.6,73.1,29.81,SW,214,0.0,1.0,95,0.00,,,0.00,Wunderground v.1.15,2013-06-14 09:15:00,
2013-06-14 05:20:00,74.6,73.1,29.81,SW,214,0.0,0.0,95,0.00,,,0.00,Wunderground v.1.15,2013-06-14 09:20:00,
2013-06-14 05:30:00,74.4,72.9,29.81,SW,236,0.0,0.0,95,0.00,,,0.00,Wunderground v.1.15,2013-06-14 09:30:00,
2013-06-14 05:35:00,74.4,72.9,29.81,SW,236,0.0,0.0,95,0.00,,,0.00,Wunderground v.1.15,2013-06-14 09:35:00,
2013-06-14 05:45:00,74.4,72.9,29.81,SW,236,0.0,0.0,95,0.00,,,0.00,Wunderground v.1.15,2013-06-14 09:45:00,
2013-06-14 05:55:00,74.4,72.9,29.81,SW,233,0.0,0.0,95,0.00,,,0.00,Wunderground v.1.15,2013-06-14 09:55:00,
2013-06-14 06:05:00,74.2,72.7,29.81,WSW,254,0.0,0.0,95,0.00,,,0.00,Wunderground v.1.15,2013-06-14 10:05:00,
2013-06-14 06:15:00,74.2,72.7,29.81,WSW,254,0.0,0.0,95,0.00,,,0.00,Wunderground v.1.15,2013-06-14 10:15:00,
2013-06-14 06:20:00,74.2,72.7,29.81,West,280,0.0,0.0,95,0.00,,,0.00,Wunderground v.1.15,2013-06-14 10:20:00,
2013-06-14 06:30:00,74.4,72.6,29.81,West,280,0.0,0.0,94,0.00,,,0.00,Wunderground v.1.15,2013-06-14 10:30:00,
2013-06-14 06:40:00,74.4,72.6,29.82,West,280,0.0,0.0,94,0.00,,,0.00,Wunderground v.1.15,2013-06-14 10:40:00,
2013-06-14 06:50:00,74.6,72.8,29.83,West,280,0.0,0.0,94,0.00,,,0.00,Wunderground v.1.15,2013-06-14 10:50:00,
2013-06-14 07:00:00,74.7,72.9,29.83,SW,236,0.0,0.0,94,0.00,,,0.00,Wunderground v.1.15,2013-06-14 11:00:00,
2013-06-14 07:05:00,74.7,72.5,29.82,SSW,203,0.0,2.0,93,0.00,,,0.00,Wunderground v.1.15,2013-06-14 11:05:00,
2013-06-14 07:15:00,74.9,72.7,29.82,SW,215,0.0,0.0,93,0.00,,,0.00,Wunderground v.1.15,2013-06-14 11:15:00,
2013-06-14 07:20:00,74.9,72.7,29.82,SW,224,0.0,0.0,93,0.00,,,0.00,Wunderground v.1.15,2013-06-14 11:20:00,
2013-06-14 07:30:00,75.3,72.8,29.82,WSW,244,0.0,0.0,92,0.00,,,0.00,Wunderground v.1.15,2013-06-14 11:30:00,
2013-06-14 07:40:00,75.8,73.0,29.83,SW,225,0.0,0.0,91,0.00,,,0.00,Wunderground v.1.15,2013-06-14 11:40:00,
2013-06-14 07:45:00,76.0,73.2,29.83,SW,235,0.0,0.0,91,0.00,,,0.00,Wunderground v.1.15,2013-06-14 11:45:00,
2013-06-14 07:55:00,76.5,73.0,29.83,WSW,241,0.0,1.0,89,0.00,,,0.00,Wunderground v.1.15,2013-06-14 11:55:00,
2013-06-14 08:05:00,77.0,73.2,29.83,WSW,240,0.0,0.0,88,0.00,,,0.00,Wunderground v.1.15,2013-06-14 12:05:00,
2013-06-14 08:15:00,77.7,73.5,29.84,West,267,0.0,0.0,87,0.00,,,0.00,Wunderground v.1.15,2013-06-14 12:15:00,
2013-06-14 08:25:00,78.3,73.8,29.84,West,265,0.0,0.0,86,0.00,,,0.00,Wunderground v.1.15,2013-06-14 12:25:00,
2013-06-14 08:30:00,78.6,73.7,29.84,SW,233,0.0,2.0,85,0.00,,,0.00,Wunderground v.1.15,2013-06-14 12:30:00,
2013-06-14 08:40:00,79.2,73.6,29.84,SW,232,0.0,2.0,83,0.00,,,0.00,Wunderground v.1.15,2013-06-14 12:40:00,
2013-06-14 08:50:00,79.9,73.5,29.84,SW,227,1.0,1.0,81,0.00,,,0.00,Wunderground v.1.15,2013-06-14 12:50:00,
2013-06-14 09:00:00,80.9,74.1,29.84,SW,220,0.0,3.0,80,0.00,,,0.00,Wunderground v.1.15,2013-06-14 13:00:00,
2013-06-14 09:05:00,81.4,74.6,29.85,SW,217,0.0,3.0,80,0.00,,,0.00,Wunderground v.1.15,2013-06-14 13:05:00,
2013-06-14 09:15:00,81.6,74.1,29.85,WSW,239,1.0,2.0,78,0.00,,,0.00,Wunderground v.1.15,2013-06-14 13:15:00,
2013-06-14 09:20:00,81.8,74.6,29.85,West,279,1.0,1.0,79,0.00,,,0.00,Wunderground v.1.15,2013-06-14 13:20:00,
2013-06-14 09:25:00,82.0,74.1,29.85,SSW,200,1.0,4.0,77,0.00,,,0.00,Wunderground v.1.15,2013-06-14 13:25:00,
2013-06-14 09:35:00,83.0,74.6,29.85,SW,231,1.0,1.0,76,0.00,,,0.00,Wunderground v.1.15,2013-06-14 13:35:00,
2013-06-14 09:45:00,83.2,74.8,29.85,SW,234,0.0,0.0,76,0.00,,,0.00,Wunderground v.1.15,2013-06-14 13:45:00,
2013-06-14 09:50:00,83.6,74.8,29.85,WSW,255,1.0,1.0,75,0.00,,,0.00,Wunderground v.1.15,2013-06-14 13:50:00,
2013-06-14 10:00:00,84.0,74.4,29.85,SW,233,0.0,0.0,73,0.00,,,0.00,Wunderground v.1.15,2013-06-14 14:00:00,
2013-06-14 10:05:00,84.5,73.6,29.84,SSW,212,1.0,3.0,70,0.00,,,0.00,Wunderground v.1.15,2013-06-14 14:05:00,
2013-06-14 10:15:00,84.7,74.3,29.84,WSW,237,1.0,6.0,71,0.00,,,0.00,Wunderground v.1.15,2013-06-14 14:15:00,
2013-06-14 10:20:00,85.1,72.0,29.84,West,259,1.0,4.0,65,0.00,,,0.00,Wunderground v.1.15,2013-06-14 14:20:00,
2013-06-14 10:30:00,85.9,72.3,29.84,West,275,2.0,2.0,64,0.00,,,0.00,Wunderground v.1.15,2013-06-14 14:30:00,
2013-06-14 10:35:00,86.3,71.7,29.84,WSW,251,1.0,2.0,62,0.00,,,0.00,Wunderground v.1.15,2013-06-14 14:35:00,
2013-06-14 10:45:00,86.1,72.5,29.84,West,266,1.0,1.0,64,0.00,,,0.00,Wunderground v.1.15,2013-06-14 14:45:00,
2013-06-14 10:55:00,85.9,73.2,29.85,SE,130,1.0,4.0,66,0.00,,,0.00,Wunderground v.1.15,2013-06-14 14:55:00,
2013-06-14 11:00:00,85.7,72.1,29.86,SSW,193,1.0,1.0,64,0.00,,,0.00,Wunderground v.1.15,2013-06-14 15:00:00,
2013-06-14 11:05:00,85.9,72.3,29.86,WNW,294,1.0,1.0,64,0.00,,,0.00,Wunderground v.1.15,2013-06-14 15:05:00,
2013-06-14 11:15:00,85.7,71.7,29.86,SW,227,1.0,1.0,63,0.00,,,0.00,Wunderground v.1.15,2013-06-14 15:15:00,
2013-06-14 11:25:00,85.7,72.1,29.86,West,278,2.0,2.0,64,0.00,,,0.00,Wunderground v.1.15,2013-06-14 15:25:00,
2013-06-14 11:30:00,85.5,71.9,29.86,SW,225,1.0,1.0,64,0.00,,,0.00,Wunderground v.1.15,2013-06-14 15:30:00,
2013-06-14 11:40:00,86.5,71.5,29.86,SW,225,1.0,1.0,61,0.00,,,0.00,Wunderground v.1.15,2013-06-14 15:40:00,
2013-06-14 11:50:00,86.7,72.6,29.86,WSW,246,1.0,1.0,63,0.00,,,0.00,Wunderground v.1.15,2013-06-14 15:50:00,
2013-06-14 11:55:00,86.5,72.4,29.86,SW,227,1.0,1.0,63,0.00,,,0.00,Wunderground v.1.15,2013-06-14 15:55:00,
2013-06-14 12:05:00,85.1,72.0,29.85,SW,233,2.0,2.0,65,0.00,,,0.00,Wunderground v.1.15,2013-06-14 16:05:00,
2013-06-14 12:15:00,84.7,72.1,29.85,West,270,1.0,1.0,66,0.00,,,0.00,Wunderground v.1.15,2013-06-14 16:15:00,
2013-06-14 12:25:00,84.0,72.3,29.86,West,279,1.0,1.0,68,0.00,,,0.00,Wunderground v.1.15,2013-06-14 16:25:00,
2013-06-14 12:35:00,83.2,72.4,29.85,SSE,150,1.0,1.0,70,0.00,,,0.00,Wunderground v.1.15,2013-06-14 16:35:00,
2013-06-14 12:40:00,83.0,72.2,29.85,SW,229,1.0,2.0,70,0.00,,,0.00,Wunderground v.1.15,2013-06-14 16:40:00,
2013-06-14 12:50:00,82.6,72.2,29.85,SSW,204,1.0,1.0,71,0.00,,,0.00,Wunderground v.1.15,2013-06-14 16:50:00,
2013-06-14 13:00:00,82.4,72.9,29.85,WSW,241,1.0,2.0,73,0.00,,,0.00,Wunderground v.1.15,2013-06-14 17:00:00,
2013-06-14 13:05:00,82.2,72.3,29.84,NW,326,1.0,2.0,72,0.00,,,0.00,Wunderground v.1.15,2013-06-14 17:05:00,
2013-06-14 13:15:00,82.4,72.9,29.84,NNW,338,1.0,4.0,73,0.00,,,0.00,Wunderground v.1.15,2013-06-14 17:15:00,
2013-06-14 13:20:00,83.4,73.8,29.84,WSW,249,1.0,1.0,73,0.00,,,0.00,Wunderground v.1.15,2013-06-14 17:20:00,
2013-06-14 13:25:00,84.3,74.3,29.84,WNW,301,2.0,2.0,72,0.00,,,0.00,Wunderground v.1.15,2013-06-14 17:25:00,
2013-06-14 13:35:00,85.9,73.7,29.84,WSW,237,1.0,2.0,67,0.00,,,0.00,Wunderground v.1.15,2013-06-14 17:35:00,
2013-06-14 13:45:00,86.7,73.1,29.84,SW,215,2.0,2.0,64,0.00,,,0.00,Wunderground v.1.15,2013-06-14 17:45:00,
2013-06-14 13:55:00,88.0,73.3,29.84,West,277,1.0,1.0,62,0.00,,,0.00,Wunderground v.1.15,2013-06-14 17:55:00,
2013-06-14 14:00:00,87.8,72.2,29.84,SSW,211,1.0,4.0,60,0.00,,,0.00,Wunderground v.1.15,2013-06-14 18:00:00,
2013-06-14 14:05:00,87.6,73.9,29.83,NW,311,2.0,4.0,64,0.00,,,0.00,Wunderground v.1.15,2013-06-14 18:05:00,
2013-06-14 14:15:00,87.6,72.5,29.83,NW,309,1.0,2.0,61,0.00,,,0.00,Wunderground v.1.15,2013-06-14 18:15:00,
2013-06-14 14:20:00,87.8,73.2,29.82,WSW,238,1.0,1.0,62,0.00,,,0.00,Wunderground v.1.15,2013-06-14 18:20:00,
2013-06-14 14:30:00,88.2,72.1,29.82,SW,234,1.0,1.0,59,0.00,,,0.00,Wunderground v.1.15,2013-06-14 18:30:00,
2013-06-14 14:40:00,88.8,73.6,29.81,West,270,2.0,3.0,61,0.00,,,0.00,Wunderground v.1.15,2013-06-14 18:40:00,
2013-06-14 14:45:00,89.0,72.3,29.81,WSW,242,2.0,4.0,58,0.00,,,0.00,Wunderground v.1.15,2013-06-14 18:45:00,
2013-06-14 14:55:00,88.8,71.6,29.80,SSW,205,2.0,2.0,57,0.00,,,0.00,Wunderground v.1.15,2013-06-14 18:55:00,
2013-06-14 15:05:00,89.7,72.4,29.81,WSW,250,1.0,5.0,57,0.00,,,0.00,Wunderground v.1.15,2013-06-14 19:05:00,
2013-06-14 15:15:00,90.1,72.3,29.81,SSW,207,1.0,2.0,56,0.00,,,0.00,Wunderground v.1.15,2013-06-14 19:15:00,
2013-06-14 15:25:00,89.7,71.4,29.82,WSW,242,2.0,4.0,55,0.00,,,0.00,Wunderground v.1.15,2013-06-14 19:25:00,
2013-06-14 15:35:00,89.7,72.4,29.81,SW,229,3.0,6.0,57,0.00,,,0.00,Wunderground v.1.15,2013-06-14 19:35:00,
2013-06-14 15:45:00,90.1,71.8,29.81,West,259,2.0,4.0,55,0.00,,,0.00,Wunderground v.1.15,2013-06-14 19:45:00,
2013-06-14 15:55:00,89.5,72.3,29.81,WNW,300,2.0,5.0,57,0.00,,,0.00,Wunderground v.1.15,2013-06-14 19:55:00,
2013-06-14 16:00:00,89.0,72.3,29.81,WNW,282,2.0,2.0,58,0.00,,,0.00,Wunderground v.1.15,2013-06-14 20:00:00,
2013-06-14 16:05:00,89.0,72.3,29.81,West,263,2.0,2.0,58,0.00,,,0.00,Wunderground v.1.15,2013-06-14 20:05:00,
2013-06-14 16:15:00,88.8,73.6,29.81,SSE,155,2.0,5.0,61,0.00,,,0.00,Wunderground v.1.15,2013-06-14 20:15:00,
2013-06-14 16:20:00,88.6,73.4,29.80,SW,220,2.0,5.0,61,0.00,,,0.00,Wunderground v.1.15,2013-06-14 20:20:00,
2013-06-14 16:30:00,88.4,74.2,29.80,WNW,295,1.0,1.0,63,0.00,,,0.00,Wunderground v.1.15,2013-06-14 20:30:00,
2013-06-14 16:35:00,88.8,74.6,29.79,West,267,1.0,1.0,63,0.00,,,0.00,Wunderground v.1.15,2013-06-14 20:35:00,
2013-06-14 16:45:00,88.6,73.9,29.79,West,262,2.0,2.0,62,0.00,,,0.00,Wunderground v.1.15,2013-06-14 20:45:00,
2013-06-14 16:55:00,88.0,74.3,29.79,SSW,205,2.0,6.0,64,0.00,,,0.00,Wunderground v.1.15,2013-06-14 20:55:00,
2013-06-14 17:05:00,88.2,74.5,29.79,SSW,209,2.0,2.0,64,0.00,,,0.00,Wunderground v.1.15,2013-06-14 21:05:00,
2013-06-14 17:15:00,87.0,74.3,29.79,SSW,196,2.0,5.0,66,0.00,,,0.00,Wunderground v.1.15,2013-06-14 21:15:00,
2013-06-14 17:20:00,86.5,74.2,29.78,West,267,1.0,1.0,67,0.00,,,0.00,Wunderground v.1.15,2013-06-14 21:20:00,
2013-06-14 17:30:00,86.5,74.2,29.78,SSW,196,1.0,2.0,67,0.00,,,0.00,Wunderground v.1.15,2013-06-14 21:30:00,
2013-06-14 17:40:00,85.9,74.5,29.79,WSW,253,0.0,0.0,69,0.00,,,0.00,Wunderground v.1.15,2013-06-14 21:40:00,
2013-06-14 17:50:00,85.5,74.2,29.81,SSW,213,1.0,1.0,69,0.00,,,0.00,Wunderground v.1.15,2013-06-14 21:50:00,
2013-06-14 18:00:00,84.9,74.0,29.81,West,275,0.0,0.0,70,0.00,,,0.00,Wunderground v.1.15,2013-06-14 22:00:00,
2013-06-14 18:05:00,84.7,74.3,29.81,SSW,200,0.0,0.0,71,0.00,,,0.00,Wunderground v.1.15,2013-06-14 22:05:00,
2013-06-14 18:15:00,84.5,74.1,29.81,NNW,340,1.0,1.0,71,0.00,,,0.00,Wunderground v.1.15,2013-06-14 22:15:00,
2013-06-14 18:25:00,84.5,74.1,29.83,South,182,0.0,0.0,71,0.00,,,0.00,Wunderground v.1.15,2013-06-14 22:25:00,
2013-06-14 18:30:00,84.5,74.5,29.83,SSW,198,0.0,0.0,72,0.00,,,0.00,Wunderground v.1.15,2013-06-14 22:30:00,
2013-06-14 18:40:00,84.7,75.1,29.81,SW,226,0.0,0.0,73,0.00,,,0.00,Wunderground v.1.15,2013-06-14 22:40:00,
2013-06-14 18:50:00,84.5,74.9,29.81,SW,217,0.0,0.0,73,0.00,,,0.00,Wunderground v.1.15,2013-06-14 22:50:00,
2013-06-14 18:55:00,84.3,74.7,29.81,SSW,207,0.0,5.0,73,0.00,,,0.00,Wunderground v.1.15,2013-06-14 22:55:00,
2013-06-14 19:05:00,83.8,75.0,29.80,SW,232,1.0,1.0,75,0.00,,,0.00,Wunderground v.1.15,2013-06-14 23:05:00,
2013-06-14 19:15:00,83.8,75.0,29.80,SW,219,0.0,0.0,75,0.00,,,0.00,Wunderground v.1.15,2013-06-14 23:15:00,
2013-06-14 19:25:00,83.8,75.0,29.80,NW,326,0.0,0.0,75,0.00,,,0.00,Wunderground v.1.15,2013-06-14 23:25:00,
2013-06-14 19:35:00,83.6,74.8,29.81,SSW,200,0.0,1.0,75,0.00,,,0.00,Wunderground v.1.15,2013-06-14 23:35:00,
2013-06-14 19:45:00,83.8,75.0,29.81,SSW,199,0.0,1.0,75,0.00,,,0.00,Wunderground v.1.15,2013-06-14 23:45:00,
2013-06-14 19:55:00,83.8,75.0,29.82,NW,311,0.0,0.0,75,0.00,,,0.00,Wunderground v.1.15,2013-06-14 23:55:00,
2013-06-14 20:05:00,83.6,75.2,29.82,SSW,200,0.0,1.0,76,0.00,,,0.00,Wunderground v.1.15,2013-06-15 00:05:00,
2013-06-14 20:15:00,83.2,74.8,29.82,SW,234,0.0,1.0,76,0.00,,,0.00,Wunderground v.1.15,2013-06-15 00:15:00,
2013-06-14 20:20:00,83.0,75.0,29.82,WSW,237,0.0,0.0,77,0.00,,,0.00,Wunderground v.1.15,2013-06-15 00:20:00,
2013-06-14 20:30:00,82.6,75.0,29.82,SW,234,0.0,0.0,78,0.00,,,0.00,Wunderground v.1.15,2013-06-15 00:30:00,
2013-06-14 20:40:00,82.4,75.2,29.83,WSW,238,0.0,0.0,79,0.00,,,0.00,Wunderground v.1.15,2013-06-15 00:40:00,
2013-06-14 20:50:00,82.2,75.4,29.83,WNW,294,0.0,0.0,80,0.00,,,0.00,Wunderground v.1.15,2013-06-15 00:50:00,
2013-06-14 21:00:00,82.0,75.6,29.83,SSW,207,0.0,0.0,81,0.00,,,0.00,Wunderground v.1.15,2013-06-15 01:00:00,
2013-06-14 21:05:00,82.0,75.6,29.82,SSW,200,0.0,0.0,81,0.00,,,0.00,Wunderground v.1.15,2013-06-15 01:05:00,
2013-06-14 21:15:00,81.8,75.8,29.82,WSW,251,0.0,0.0,82,0.00,,,0.00,Wunderground v.1.15,2013-06-15 01:15:00,
2013-06-14 21:20:00,81.6,75.6,29.84,WSW,251,0.0,0.0,82,0.00,,,0.00,Wunderground v.1.15,2013-06-15 01:20:00,
2013-06-14 21:25:00,81.6,75.6,29.84,WSW,250,0.0,0.0,82,0.00,,,0.00,Wunderground v.1.15,2013-06-15 01:25:00,
2013-06-14 21:35:00,81.4,75.7,29.82,SSW,209,0.0,0.0,83,0.00,,,0.00,Wunderground v.1.15,2013-06-15 01:35:00,
2013-06-14 21:45:00,81.2,75.5,29.82,West,259,0.0,0.0,83,0.00,,,0.00,Wunderground v.1.15,2013-06-15 01:45:00,
2013-06-14 21:55:00,81.2,75.9,29.84,West,259,0.0,0.0,84,0.00,,,0.00,Wunderground v.1.15,2013-06-15 01:55:00,
2013-06-14 22:05:00,81.1,75.8,29.84,West,259,0.0,0.0,84,0.00,,,0.00,Wunderground v.1.15,2013-06-15 02:05:00,
2013-06-14 22:15:00,81.1,76.2,29.84,West,259,0.0,0.0,85,0.00,,,0.00,Wunderground v.1.15,2013-06-15 02:15:00,
2013-06-14 22:20:00,80.9,76.0,29.86,West,259,0.0,0.0,85,0.00,,,0.00,Wunderground v.1.15,2013-06-15 02:20:00,
2013-06-14 22:30:00,80.9,76.0,29.86,SW,229,0.0,0.0,85,0.00,,,0.00,Wunderground v.1.15,2013-06-15 02:30:00,
2013-06-14 22:40:00,80.9,76.0,29.86,SW,229,0.0,0.0,85,0.00,,,0.00,Wunderground v.1.15,2013-06-15 02:40:00,
2013-06-14 22:45:00,80.9,76.0,29.86,SW,229,0.0,0.0,85,0.00,,,0.00,Wunderground v.1.15,2013-06-15 02:45:00,
2013-06-14 22:55:00,80.7,76.1,29.86,SW,233,0.0,0.0,86,0.00,,,0.00,Wunderground v.1.15,2013-06-15 02:55:00,
2013-06-14 23:00:00,80.5,75.9,29.86,SW,233,0.0,0.0,86,0.00,,,0.00,Wunderground v.1.15,2013-06-15 03:00:00,
2013-06-14 23:05:00,80.5,75.9,29.86,SW,233,0.0,0.0,86,0.00,,,0.00,Wunderground v.1.15,2013-06-15 03:05:00,
2013-06-14 23:15:00,80.3,76.1,29.86,SW,233,0.0,0.0,87,0.00,,,0.00,Wunderground v.1.15,2013-06-15 03:15:00,
2013-06-14 23:20:00,80.1,75.9,29.86,SW,233,0.0,0.0,87,0.00,,,0.00,Wunderground v.1.15,2013-06-15 03:20:00,
2013-06-14 23:30:00,79.9,75.7,29.86,SW,233,0.0,0.0,87,0.00,,,0.00,Wunderground v.1.15,2013-06-15 03:30:00,
2013-06-14 23:40:00,79.9,76.0,29.87,SW,233,0.0,0.0,88,0.00,,,0.00,Wunderground v.1.15,2013-06-15 03:40:00,
2013-06-14 23:45:00,79.8,75.9,29.87,SW,233,0.0,0.0,88,0.00,,,0.00,Wunderground v.1.15,2013-06-15 03:45:00,
2013-06-14 23:55:00,79.6,75.7,29.87,SW,233,0.0,0.0,88,0.00,,,0.00,Wunderground v.1.15,2013-06-15 03:55:00,